Time,TemperatureF,DewpointF,PressureIn,WindDirection,WindDirectionDegrees,WindSpeedMPH,WindSpeedGustMPH,Humidity,HourlyPrecipIn,Conditions,Clouds,dailyrainin,SoftwareType,DateUTC
2013-07-20 00:02:00,74.0,71.0,28.71,NW,325,0.0,-999.0,89,39.39,,,-99.99,,2013-07-20 05:02:00,
2013-07-20 00:11:00,74.0,71.0,28.71,NW,325,0.0,-999.0,89,39.39,,,-99.99,,2013-07-20 05:11:00,
2013-07-20 00:22:00,74.0,70.0,28.72,NW,325,0.0,-999.0,87,39.39,,,-99.99,,2013-07-20 05:22:00,
2013-07-20 00:32:00,75.0,70.0,28.73,NW,325,0.0,-999.0,85,39.39,,,-99.99,,2013-07-20 05:32:00,
2013-07-20 00:52:00,74.0,70.0,28.73,NW,325,0.0,-999.0,86,39.39,,,-99.99,,2013-07-20 05:52:00,
2013-07-20 01:01:00,74.0,70.0,28.73,NW,325,0.0,-999.0,86,39.39,,,-99.99,,2013-07-20 06:01:00,
2013-07-20 01:11:00,74.0,70.0,28.73,NW,325,0.0,-999.0,86,39.39,,,-99.99,,2013-07-20 06:11:00,
2013-07-20 01:21:00,73.0,69.0,28.74,NW,325,0.0,-999.0,88,39.39,,,-99.99,,2013-07-20 06:21:00,
2013-07-20 01:32:00,73.0,70.0,28.74,NW,325,0.0,-999.0,89,39.39,,,-99.99,,2013-07-20 06:32:00,
2013-07-20 01:43:00,73.0,70.0,28.74,NW,325,0.0,-999.0,89,39.39,,,-99.99,,2013-07-20 06:43:00,
2013-07-20 01:52:00,73.0,70.0,28.74,NW,325,0.0,-999.0,90,39.39,,,-99.99,,2013-07-20 06:52:00,
2013-07-20 02:01:00,73.0,70.0,28.74,NW,325,0.0,-999.0,90,39.39,,,-99.99,,2013-07-20 07:01:00,
2013-07-20 02:12:00,73.0,70.0,28.74,NW,325,0.0,-999.0,90,39.39,,,-99.99,,2013-07-20 07:12:00,
2013-07-20 02:22:00,73.0,70.0,28.74,NW,325,0.0,-999.0,90,39.39,,,-99.99,,2013-07-20 07:22:00,
2013-07-20 02:33:00,72.0,69.0,28.73,NW,325,0.0,-999.0,90,39.39,,,-99.99,,2013-07-20 07:33:00,
2013-07-20 02:44:00,72.0,69.0,28.73,NW,325,0.0,-999.0,90,39.39,,,-99.99,,2013-07-20 07:44:00,
2013-07-20 02:54:00,71.0,68.0,28.73,NW,325,0.0,-999.0,91,39.39,,,-99.99,,2013-07-20 07:54:00,
2013-07-20 03:01:00,71.0,68.0,28.73,NW,325,0.0,-999.0,91,39.39,,,-99.99,,2013-07-20 08:01:00,
2013-07-20 03:11:00,71.0,68.0,28.73,NW,325,0.0,-999.0,91,39.39,,,-99.99,,2013-07-20 08:11:00,
2013-07-20 03:22:00,70.0,68.0,28.72,NW,325,0.0,-999.0,92,39.39,,,-99.99,,2013-07-20 08:22:00,
2013-07-20 03:32:00,70.0,68.0,28.72,NW,325,0.0,-999.0,92,39.39,,,-99.99,,2013-07-20 08:32:00,
2013-07-20 03:44:00,70.0,68.0,28.72,NW,325,0.0,-999.0,92,39.39,,,-99.99,,2013-07-20 08:44:00,
2013-07-20 03:52:00,70.0,67.0,28.71,NW,325,0.0,-999.0,91,39.39,,,-99.99,,2013-07-20 08:52:00,
2013-07-20 04:02:00,70.0,67.0,28.71,NW,325,0.0,-999.0,91,39.39,,,-99.99,,2013-07-20 09:02:00,
2013-07-20 04:11:00,70.0,67.0,28.71,NW,325,0.0,-999.0,91,39.39,,,-99.99,,2013-07-20 09:11:00,
2013-07-20 04:22:00,70.0,67.0,28.70,NW,325,0.0,-999.0,91,39.39,,,-99.99,,2013-07-20 09:22:00,
2013-07-20 04:33:00,70.0,67.0,28.70,NW,325,0.0,-999.0,91,39.39,,,-99.99,,2013-07-20 09:33:00,
2013-07-20 04:43:00,70.0,67.0,28.70,NW,325,0.0,-999.0,91,39.39,,,-99.99,,2013-07-20 09:43:00,
2013-07-20 04:53:00,70.0,67.0,28.70,NW,325,0.0,-999.0,90,39.39,,,-99.99,,2013-07-20 09:53:00,
2013-07-20 05:01:00,70.0,67.0,28.70,NW,325,0.0,-999.0,90,39.39,,,-99.99,,2013-07-20 10:01:00,
2013-07-20 05:11:00,70.0,67.0,28.70,NW,325,0.0,-999.0,90,39.39,,,-99.99,,2013-07-20 10:11:00,
2013-07-20 05:22:00,70.0,67.0,28.69,NW,325,0.0,-999.0,90,39.39,,,-99.99,,2013-07-20 10:22:00,
2013-07-20 05:32:00,70.0,67.0,28.69,NW,325,0.0,-999.0,90,39.39,,,-99.99,,2013-07-20 10:32:00,
2013-07-20 05:42:00,70.0,67.0,28.69,NW,325,0.0,-999.0,90,39.39,,,-99.99,,2013-07-20 10:42:00,
2013-07-20 05:52:00,68.0,66.0,28.70,NW,325,0.0,-999.0,92,39.39,,,-99.99,,2013-07-20 10:52:00,
2013-07-20 06:01:00,68.0,66.0,28.70,NW,325,0.0,-999.0,92,39.39,,,-99.99,,2013-07-20 11:01:00,
2013-07-20 06:11:00,68.0,66.0,28.70,NW,325,0.0,-999.0,92,39.39,,,-99.99,,2013-07-20 11:11:00,
2013-07-20 06:22:00,67.0,65.0,28.70,NW,325,0.0,-999.0,93,39.39,,,-99.99,,2013-07-20 11:22:00,
2013-07-20 06:32:00,67.0,65.0,28.70,NW,325,0.0,-999.0,93,39.39,,,-99.99,,2013-07-20 11:32:00,
2013-07-20 06:43:00,67.0,65.0,28.70,NW,325,0.0,-999.0,93,39.39,,,-99.99,,2013-07-20 11:43:00,
2013-07-20 06:52:00,67.0,65.0,28.70,NW,325,0.0,-999.0,93,39.39,,,-99.99,,2013-07-20 11:52:00,
2013-07-20 07:01:00,67.0,65.0,28.70,NW,325,0.0,-999.0,93,39.39,,,-99.99,,2013-07-20 12:01:00,
2013-07-20 07:11:00,69.0,67.0,28.72,NW,325,0.0,-999.0,92,39.39,,,-99.99,,2013-07-20 12:11:00,
2013-07-20 07:22:00,68.0,66.0,28.72,NW,325,0.0,-999.0,93,39.39,,,-99.99,,2013-07-20 12:22:00,
2013-07-20 07:32:00,69.0,67.0,28.72,NW,325,0.0,-999.0,92,39.39,,,-99.99,,2013-07-20 12:32:00,
2013-07-20 07:52:00,69.0,67.0,28.72,NW,325,0.0,-999.0,92,39.39,,,-99.99,,2013-07-20 12:52:00,
2013-07-20 08:01:00,69.0,67.0,28.72,NW,325,0.0,-999.0,92,39.39,,,-99.99,,2013-07-20 13:01:00,
2013-07-20 08:11:00,71.0,68.0,28.71,NW,325,0.0,-999.0,90,39.39,,,-99.99,,2013-07-20 13:11:00,
2013-07-20 08:32:00,71.0,68.0,28.71,NW,325,0.0,-999.0,90,39.39,,,-99.99,,2013-07-20 13:32:00,
2013-07-20 08:43:00,71.0,68.0,28.71,NW,325,0.0,-999.0,90,39.39,,,-99.99,,2013-07-20 13:43:00,
2013-07-20 08:53:00,71.0,68.0,28.71,NW,325,0.0,-999.0,90,39.39,,,-99.99,,2013-07-20 13:53:00,
2013-07-20 09:02:00,71.0,68.0,28.71,NW,325,0.0,-999.0,90,39.39,,,-99.99,,2013-07-20 14:02:00,
2013-07-20 09:11:00,73.0,70.0,28.76,North,11,0.0,-999.0,90,39.39,,,-99.99,,2013-07-20 14:11:00,
2013-07-20 09:32:00,73.0,70.0,28.76,North,11,0.0,-999.0,90,39.39,,,-99.99,,2013-07-20 14:32:00,
2013-07-20 09:43:00,73.0,70.0,28.76,North,11,0.0,-999.0,90,39.39,,,-99.99,,2013-07-20 14:43:00,
2013-07-20 09:53:00,73.0,70.0,28.76,North,11,0.0,-999.0,90,39.39,,,-99.99,,2013-07-20 14:53:00,
2013-07-20 10:01:00,73.0,70.0,28.76,North,11,0.0,-999.0,90,39.39,,,-99.99,,2013-07-20 15:01:00,
2013-07-20 10:11:00,78.0,70.0,28.77,NE,49,0.0,-999.0,77,39.39,,,-99.99,,2013-07-20 15:11:00,
2013-07-20 10:33:00,78.0,70.0,28.77,NE,49,0.0,-999.0,77,39.39,,,-99.99,,2013-07-20 15:33:00,
2013-07-20 10:44:00,78.0,70.0,28.77,NE,49,0.0,-999.0,77,39.39,,,-99.99,,2013-07-20 15:44:00,
2013-07-20 10:53:00,78.0,70.0,28.77,NE,49,0.0,-999.0,77,39.39,,,-99.99,,2013-07-20 15:53:00,
2013-07-20 11:01:00,78.0,70.0,28.77,NE,49,0.0,-999.0,77,39.39,,,-99.99,,2013-07-20 16:01:00,
2013-07-20 11:11:00,80.0,71.0,28.79,North,0,0.0,-999.0,75,39.39,,,-99.99,,2013-07-20 16:11:00,
2013-07-20 11:32:00,80.0,71.0,28.79,North,0,0.0,-999.0,75,39.39,,,-99.99,,2013-07-20 16:32:00,
2013-07-20 11:43:00,80.0,71.0,28.79,North,0,0.0,-999.0,75,39.39,,,-99.99,,2013-07-20 16:43:00,
2013-07-20 11:52:00,80.0,71.0,28.79,North,0,0.0,-999.0,75,39.39,,,-99.99,,2013-07-20 16:52:00,
2013-07-20 12:02:00,80.0,71.0,28.79,North,0,0.0,-999.0,75,39.39,,,-99.99,,2013-07-20 17:02:00,
2013-07-20 12:32:00,81.0,70.0,28.76,SSE,163,7.0,-999.0,69,39.39,,,-99.99,,2013-07-20 17:32:00,
2013-07-20 12:43:00,81.0,70.0,28.76,SSE,163,7.0,-999.0,69,39.39,,,-99.99,,2013-07-20 17:43:00,
2013-07-20 12:53:00,81.0,69.0,28.74,South,169,9.0,-999.0,68,39.39,,,-99.99,,2013-07-20 17:53:00,
2013-07-20 13:01:00,81.0,69.0,28.74,South,169,9.0,-999.0,68,39.39,,,-99.99,,2013-07-20 18:01:00,
2013-07-20 13:11:00,81.0,69.0,28.74,South,169,9.0,-999.0,68,39.39,,,-99.99,,2013-07-20 18:11:00,
2013-07-20 13:24:00,82.0,69.0,28.73,SSE,159,0.0,-999.0,65,39.39,,,-99.99,,2013-07-20 18:24:00,
2013-07-20 13:35:00,82.0,69.0,28.73,SSE,159,0.0,-999.0,65,39.39,,,-99.99,,2013-07-20 18:35:00,
2013-07-20 13:47:00,82.0,69.0,28.73,SSE,159,0.0,-999.0,65,39.39,,,-99.99,,2013-07-20 18:47:00,
2013-07-20 14:04:00,83.0,69.0,28.73,SSE,153,5.0,-999.0,63,39.39,,,-99.99,,2013-07-20 19:04:00,
2013-07-20 14:11:00,85.0,69.0,28.72,NNE,30,0.0,-999.0,59,39.39,,,-99.99,,2013-07-20 19:11:00,
2013-07-20 14:14:00,83.0,69.0,28.73,SSE,153,5.0,-999.0,63,39.39,,,-99.99,,2013-07-20 19:14:00,
2013-07-20 14:33:00,85.0,69.0,28.72,NNE,30,0.0,-999.0,59,39.39,,,-99.99,,2013-07-20 19:33:00,
2013-07-20 14:44:00,85.0,69.0,28.72,NNE,30,0.0,-999.0,59,39.39,,,-99.99,,2013-07-20 19:44:00,
2013-07-20 14:56:00,85.0,69.0,28.72,NNE,30,0.0,-999.0,59,39.39,,,-99.99,,2013-07-20 19:56:00,
2013-07-20 15:04:00,85.0,69.0,28.72,NNE,30,0.0,-999.0,59,39.39,,,-99.99,,2013-07-20 20:04:00,
2013-07-20 15:35:00,85.0,70.0,28.71,SE,142,0.0,-999.0,60,39.39,,,-99.99,,2013-07-20 20:35:00,
2013-07-20 16:03:00,85.0,70.0,28.71,SE,142,0.0,-999.0,60,39.39,,,-99.99,,2013-07-20 21:03:00,
2013-07-20 17:05:00,86.0,70.0,28.70,SE,141,3.0,-999.0,59,39.39,,,-99.99,,2013-07-20 22:05:00,
2013-07-20 17:56:00,86.0,71.0,28.66,SSW,211,7.0,-999.0,62,39.39,,,-99.99,,2013-07-20 22:56:00,
2013-07-20 18:39:00,83.0,69.0,28.64,SSE,158,12.0,-999.0,63,39.39,,,-99.99,,2013-07-20 23:39:00,
2013-07-20 18:46:00,83.0,69.0,28.64,SSE,158,12.0,-999.0,63,39.39,,,-99.99,,2013-07-20 23:46:00,
2013-07-20 19:22:00,84.0,67.0,28.66,SSE,163,7.0,-999.0,56,39.39,,,-99.99,,2013-07-21 00:22:00,
2013-07-20 19:56:00,83.0,66.0,28.66,SSE,148,0.0,-999.0,56,39.39,,,-99.99,,2013-07-21 00:56:00,
2013-07-20 20:11:00,83.0,66.0,28.66,SSE,148,0.0,-999.0,56,39.39,,,-99.99,,2013-07-21 01:11:00,
2013-07-20 20:25:00,83.0,66.0,28.66,SSE,148,0.0,-999.0,56,39.39,,,-99.99,,2013-07-21 01:25:00,
2013-07-20 20:35:00,83.0,66.0,28.65,East,98,0.0,-999.0,57,39.39,,,-99.99,,2013-07-21 01:35:00,
2013-07-20 20:49:00,-999.0,-99.9,28.65,East,98,0.0,-999.0,-999,-99.99,,,-99.99,,2013-07-21 01:49:00,
2013-07-20 20:59:00,81.0,67.0,28.66,East,98,0.0,-999.0,62,39.39,,,-99.99,,2013-07-21 01:59:00,
2013-07-20 21:11:00,80.0,68.0,28.67,SSE,162,0.0,-999.0,68,39.39,,,-99.99,,2013-07-21 02:11:00,
2013-07-20 21:14:00,81.0,67.0,28.66,East,98,0.0,-999.0,62,39.39,,,-99.99,,2013-07-21 02:14:00,
2013-07-20 21:25:00,81.0,67.0,28.66,East,98,0.0,-999.0,62,39.39,,,-99.99,,2013-07-21 02:25:00,
2013-07-20 21:35:00,80.0,68.0,28.67,SSE,162,0.0,-999.0,68,39.39,,,-99.99,,2013-07-21 02:35:00,
2013-07-20 21:58:00,80.0,68.0,28.67,SSE,162,0.0,-999.0,68,39.39,,,-99.99,,2013-07-21 02:58:00,
2013-07-20 22:11:00,75.0,68.0,28.70,SSE,153,0.0,-999.0,79,39.39,,,-99.99,,2013-07-21 03:11:00,
2013-07-20 22:26:00,76.0,68.0,28.69,SSE,153,0.0,-999.0,76,39.39,,,-99.99,,2013-07-21 03:26:00,
2013-07-20 22:47:00,75.0,68.0,28.70,SSE,153,0.0,-999.0,79,39.39,,,-99.99,,2013-07-21 03:47:00,
2013-07-20 22:59:00,75.0,68.0,28.70,SSE,153,0.0,-999.0,79,39.39,,,-99.99,,2013-07-21 03:59:00,
2013-07-20 23:01:00,75.0,68.0,28.70,SSE,153,0.0,-999.0,79,39.39,,,-99.99,,2013-07-21 04:01:00,
2013-07-20 23:11:00,76.0,69.0,28.69,SSE,153,0.0,-999.0,79,39.39,,,-99.99,,2013-07-21 04:11:00,
2013-07-20 23:22:00,76.0,69.0,28.70,SSE,153,0.0,-999.0,80,39.39,,,-99.99,,2013-07-21 04:22:00,
2013-07-20 23:32:00,76.0,69.0,28.69,SSE,153,0.0,-999.0,79,39.39,,,-99.99,,2013-07-21 04:32:00,
2013-07-20 23:43:00,76.0,69.0,28.69,SSE,153,0.0,-999.0,79,39.39,,,-99.99,,2013-07-21 04:43:00,
2013-07-20 23:53:00,76.0,69.0,28.69,SSE,153,0.0,-999.0,79,39.39,,,-99.99,,2013-07-21 04:53:00,